Skip Navigation
Skip Navigation

Today's Weather Data

Time Wind Dir Wind Spd
mph
Wind Gust
mph
Hum In
%
Humidity
%
Temp In
F
Temp
F
Raw Barom
in
Tot Rain
in
UV Solar
W/sqm
DailyRain
in
HourRain
in
24HrRain
in
RainRate
in/hr
1/16/2018 7:29:00a 287 0 0 24 56 72.3 53.4 30.19 1.55 0.0 32 0.00 0.00 0.00 0.000
1/16/2018 7:29:54a 287 0 0 24 56 72.3 53.5 30.19 1.55 0.0 33 0.00 0.00 0.00 0.000
1/16/2018 7:31:04a 287 0 0 24 56 72.3 53.4 30.19 1.55 0.0 33 0.00 0.00 0.00 0.000
1/16/2018 7:32:07a 287 0 0 24 56 72.3 53.4 30.19 1.55 0.0 33 0.00 0.00 0.00 0.000
1/16/2018 7:33:10a 287 0 0 24 56 72.3 53.5 30.19 1.55 0.0 44 0.00 0.00 0.00 0.000
1/16/2018 7:34:11a 287 0 0 24 56 72.3 53.5 30.19 1.55 0.0 46 0.00 0.00 0.00 0.000
1/16/2018 7:35:11a 287 0 0 24 56 72.3 53.5 30.19 1.55 0.0 47 0.00 0.00 0.00 0.000
1/16/2018 7:36:14a 287 0 0 24 56 72.3 53.5 30.19 1.55 0.0 47 0.00 0.00 0.00 0.000
1/16/2018 7:37:18a 287 0 0 24 56 72.3 53.5 30.19 1.55 0.0 47 0.00 0.00 0.00 0.000
1/16/2018 7:38:18a 287 2 2 24 56 72.3 53.5 30.19 1.55 0.0 58 0.00 0.00 0.00 0.000
1/16/2018 7:39:18a 287 1 2 24 56 72.3 53.5 30.19 1.55 0.0 62 0.00 0.00 0.00 0.000
1/16/2018 7:40:19a 287 1 2 24 56 72.3 53.5 30.19 1.55 0.0 70 0.00 0.00 0.00 0.000
1/16/2018 7:41:19a 287 1 2 24 56 72.3 53.5 30.19 1.55 0.0 70 0.00 0.00 0.00 0.000
1/16/2018 7:42:19a 287 1 2 24 56 72.3 53.5 30.19 1.55 0.0 70 0.00 0.00 0.00 0.000
1/16/2018 7:43:19a 287 2 2 24 57 72.3 53.5 30.19 1.55 0.0 74 0.00 0.00 0.00 0.000
1/16/2018 7:44:20a 287 3 3 24 57 72.3 53.6 30.19 1.55 0.0 69 0.00 0.00 0.00 0.000
1/16/2018 7:45:20a 287 1 3 24 57 72.3 53.6 30.19 1.55 0.0 63 0.00 0.00 0.00 0.000
1/16/2018 7:46:20a 287 1 3 24 57 72.3 53.6 30.19 1.55 0.0 63 0.00 0.00 0.00 0.000
1/16/2018 7:47:27a 287 1 3 24 57 72.3 53.6 30.19 1.55 0.0 63 0.00 0.00 0.00 0.000
1/16/2018 7:48:27a 288 2 3 24 57 72.3 53.6 30.19 1.55 0.0 109 0.00 0.00 0.00 0.000
1/16/2018 7:49:30a 288 3 3 24 57 72.3 53.7 30.19 1.55 0.0 111 0.00 0.00 0.00 0.000
1/16/2018 7:50:37a 289 2 3 24 57 72.1 53.7 30.19 1.55 0.0 111 0.00 0.00 0.00 0.000
1/16/2018 7:51:43a 289 2 3 24 57 72.1 53.7 30.19 1.55 0.0 111 0.00 0.00 0.00 0.000
1/16/2018 7:52:43a 289 0 3 24 57 72.3 53.7 30.19 1.55 0.0 100 0.00 0.00 0.00 0.000
1/16/2018 7:53:43a 288 0 3 24 57 72.3 53.8 30.19 1.55 0.0 98 0.00 0.00 0.00 0.000
1/16/2018 7:54:44a 288 0 3 24 57 72.3 53.8 30.19 1.55 0.0 97 0.00 0.00 0.00 0.000
1/16/2018 7:55:44a 288 0 3 24 58 72.3 53.8 30.19 1.55 0.0 97 0.00 0.00 0.00 0.000
1/16/2018 7:56:44a 288 0 3 24 58 72.3 53.8 30.19 1.55 0.0 97 0.00 0.00 0.00 0.000
1/16/2018 7:57:43a 288 0 3 24 58 72.3 54.0 30.19 1.55 0.0 128 0.00 0.00 0.00 0.000
1/16/2018 7:58:43a 288 0 3 24 58 72.3 54.0 30.19 1.55 0.0 176 0.00 0.00 0.00 0.000
1/16/2018 7:59:43a 288 0 3 24 58 72.3 54.1 30.19 1.55 0.0 183 0.00 0.00 0.00 0.000
1/16/2018 8:00:44a 288 0 3 24 58 72.3 54.1 30.19 1.55 0.0 183 0.00 0.00 0.00 0.000
1/16/2018 8:01:44a 288 0 3 24 58 72.3 54.1 30.19 1.55 0.0 183 0.00 0.00 0.00 0.000
1/16/2018 8:02:43a 288 0 0 24 58 72.3 54.2 30.19 1.55 0.0 137 0.00 0.00 0.00 0.000
1/16/2018 8:03:43a 288 0 0 24 58 72.3 54.3 30.19 1.55 0.0 127 0.00 0.00 0.00 0.000
1/16/2018 8:04:43a 288 0 0 24 58 72.3 54.4 30.19 1.55 0.0 160 0.00 0.00 0.00 0.000
1/16/2018 8:05:44a 288 0 0 24 58 72.3 54.4 30.19 1.55 0.0 160 0.00 0.00 0.00 0.000
1/16/2018 8:06:44a 288 0 0 24 58 72.3 54.4 30.19 1.55 0.0 160 0.00 0.00 0.00 0.000
1/16/2018 8:07:44a 288 0 0 24 58 72.5 54.6 30.19 1.55 0.0 195 0.00 0.00 0.00 0.000
1/16/2018 8:08:45a 288 0 0 24 58 72.5 54.7 30.19 1.55 0.0 195 0.00 0.00 0.00 0.000
1/16/2018 8:09:45a 288 0 0 24 58 72.5 54.8 30.19 1.55 0.0 193 0.00 0.00 0.00 0.000
1/16/2018 8:10:45a 288 0 0 24 58 72.5 54.9 30.19 1.55 0.0 169 0.00 0.00 0.00 0.000
1/16/2018 8:11:52a 288 0 0 24 58 72.5 54.9 30.19 1.55 0.0 169 0.00 0.00 0.00 0.000
1/16/2018 8:12:55a 288 2 2 24 58 72.5 55.2 30.19 1.55 0.0 163 0.00 0.00 0.00 0.000
1/16/2018 8:13:55a 288 0 2 24 58 72.7 55.3 30.19 1.55 0.0 155 0.00 0.00 0.00 0.000
1/16/2018 8:14:56a 288 0 2 24 58 72.7 55.4 30.19 1.55 0.0 163 0.00 0.00 0.00 0.000
1/16/2018 8:15:56a 288 0 2 24 58 72.7 55.4 30.19 1.55 0.0 163 0.00 0.00 0.00 0.000
1/16/2018 8:16:56a 288 0 2 24 58 72.7 55.4 30.19 1.55 0.0 163 0.00 0.00 0.00 0.000
1/16/2018 8:17:56a 289 0 0 24 57 72.7 55.8 30.19 1.55 0.0 178 0.00 0.00 0.00 0.000
1/16/2018 8:18:57a 289 0 0 24 58 72.7 56.0 30.19 1.55 0.0 186 0.00 0.00 0.00 0.000
1/16/2018 8:20:05a 289 0 0 24 58 72.7 56.1 30.19 1.55 0.0 151 0.00 0.00 0.00 0.000
1/16/2018 8:21:05a 289 0 0 24 58 72.7 56.1 30.19 1.55 0.0 151 0.00 0.00 0.00 0.000
1/16/2018 8:22:05a 289 0 0 24 58 72.7 56.1 30.19 1.55 0.0 151 0.00 0.00 0.00 0.000
1/16/2018 8:23:06a 288 0 0 24 58 72.7 56.6 30.19 1.55 0.0 113 0.00 0.00 0.00 0.000
1/16/2018 8:24:06a 289 0 0 24 57 72.8 56.7 30.19 1.55 0.0 127 0.00 0.00 0.00 0.000
1/16/2018 8:25:06a 291 2 2 24 57 72.8 56.8 30.19 1.55 0.0 146 0.00 0.00 0.00 0.000
1/16/2018 8:26:07a 291 2 2 24 57 72.8 56.8 30.19 1.55 0.0 146 0.00 0.00 0.00 0.000
1/16/2018 8:27:07a 291 2 2 24 57 72.8 56.8 30.19 1.55 0.0 146 0.00 0.00 0.00 0.000
1/16/2018 8:28:10a 291 0 2 24 56 72.7 57.1 30.19 1.55 0.0 148 0.00 0.00 0.00 0.000
1/16/2018 8:30:11a 291 0 2 24 55 72.7 57.2 30.19 1.55 0.0 192 0.00 0.00 0.00 0.000
1/16/2018 8:31:12a 291 0 2 24 55 72.7 57.2 30.19 1.55 0.0 192 0.00 0.00 0.00 0.000
1/16/2018 8:32:15a 291 0 2 24 55 72.7 57.2 30.19 1.55 0.0 192 0.00 0.00 0.00 0.000
1/16/2018 8:33:18a 291 0 0 24 55 72.7 57.4 30.19 1.55 0.0 269 0.00 0.00 0.00 0.000
1/16/2018 8:34:19a 291 0 0 24 55 72.7 57.5 30.19 1.55 0.0 255 0.00 0.00 0.00 0.000
1/16/2018 8:35:22a 291 0 0 24 55 72.7 57.5 30.19 1.55 0.0 260 0.00 0.00 0.00 0.000
1/16/2018 8:36:22a 291 0 0 24 55 72.7 57.5 30.19 1.55 0.0 260 0.00 0.00 0.00 0.000
1/16/2018 8:37:23a 291 0 0 24 55 72.7 57.5 30.19 1.55 0.0 260 0.00 0.00 0.00 0.000
1/16/2018 8:38:29a 291 0 0 24 54 72.7 57.7 30.19 1.55 0.5 287 0.00 0.00 0.00 0.000
1/16/2018 8:39:29a 291 0 0 24 54 72.7 57.8 30.19 1.55 0.0 227 0.00 0.00 0.00 0.000
1/16/2018 8:40:30a 291 0 0 24 54 72.7 57.9 30.19 1.55 0.0 216 0.00 0.00 0.00 0.000
1/16/2018 8:41:30a 291 0 0 24 54 72.7 57.9 30.19 1.55 0.0 216 0.00 0.00 0.00 0.000
1/16/2018 8:42:30a 291 0 0 24 54 72.7 58.1 30.19 1.55 0.5 239 0.00 0.00 0.00 0.000
1/16/2018 8:43:30a 291 0 0 24 54 72.7 58.1 30.19 1.55 0.0 227 0.00 0.00 0.00 0.000
1/16/2018 8:44:31a 291 0 0 24 54 72.7 58.3 30.19 1.55 0.0 232 0.00 0.00 0.00 0.000
1/16/2018 8:46:31a 291 0 0 24 54 72.7 58.3 30.19 1.55 0.5 237 0.00 0.00 0.00 0.000
1/16/2018 8:47:40a 291 0 0 24 53 72.7 58.5 30.19 1.55 0.5 250 0.00 0.00 0.00 0.000
1/16/2018 8:48:44a 291 0 0 24 53 72.7 58.6 30.19 1.55 0.5 264 0.00 0.00 0.00 0.000
1/16/2018 8:49:44a 291 0 0 24 53 72.7 58.7 30.19 1.55 0.5 292 0.00 0.00 0.00 0.000

© All rights reserved. Unauthorized duplication or distribution is prohibited

Never base important decisions on this or any weather information obtained from the Internet

California State University, San Bernardino
5500 University Parkway, San Bernardino, CA. 92407
Phone: (909) 537-7558, Email: Weather Master
Last Updated: